Year,Month,Day,Hour,Minute,Value (Times are PST for temperature in C)
2017,03,29,12,33,8.80
2017,03,29,12,34,8.80
2017,03,29,12,35,8.90
2017,03,29,12,36,8.90
2017,03,29,12,37,8.90
2017,03,29,12,38,8.90
2017,03,29,12,39,8.90
2017,03,29,12,40,8.90
2017,03,29,12,41,9.00
2017,03,29,12,42,9.00
2017,03,29,12,43,9.00
2017,03,29,12,44,9.00
2017,03,29,12,45,9.10
2017,03,29,12,46,9.20
2017,03,29,12,47,9.10
2017,03,29,12,48,9.10
2017,03,29,12,49,9.20
2017,03,29,12,50,9.20
2017,03,29,12,51,9.10
2017,03,29,12,52,9.20
2017,03,29,12,53,9.20
2017,03,29,12,54,9.20
2017,03,29,12,55,9.10
2017,03,29,12,56,9.10
2017,03,29,12,57,9.10
2017,03,29,12,58,9.20
2017,03,29,12,59,9.10
2017,03,29,13,00,9.10
2017,03,29,13,01,9.10
2017,03,29,13,02,9.20
2017,03,29,13,03,9.20
2017,03,29,13,04,9.10
2017,03,29,13,05,9.10
2017,03,29,13,06,9.10
2017,03,29,13,07,9.10
2017,03,29,13,08,9.20
2017,03,29,13,09,9.20
2017,03,29,13,10,9.20
2017,03,29,13,11,9.20
2017,03,29,13,12,9.30
2017,03,29,13,13,9.40
2017,03,29,13,14,9.40
2017,03,29,13,15,9.40
2017,03,29,13,16,9.50
2017,03,29,13,17,9.50
2017,03,29,13,18,9.40
2017,03,29,13,19,9.40
2017,03,29,13,20,9.40
2017,03,29,13,21,9.50
2017,03,29,13,22,9.50
2017,03,29,13,23,9.50
2017,03,29,13,24,9.60
2017,03,29,13,25,9.60
2017,03,29,13,26,9.60
2017,03,29,13,27,9.60
2017,03,29,13,28,9.60
2017,03,29,13,29,9.60
2017,03,29,13,30,9.60
2017,03,29,13,31,9.60
2017,03,29,13,32,9.60
2017,03,29,13,33,9.60
2017,03,29,13,34,9.60
2017,03,29,13,35,9.60
2017,03,29,13,36,9.60
2017,03,29,13,37,9.60
2017,03,29,13,38,9.60
2017,03,29,13,39,9.70
2017,03,29,13,40,9.80
2017,03,29,13,41,9.80
2017,03,29,13,42,9.90
2017,03,29,13,43,9.90
2017,03,29,13,44,9.90
2017,03,29,13,45,10.00
2017,03,29,13,46,10.00
2017,03,29,13,47,10.10
2017,03,29,13,48,10.10
2017,03,29,13,49,10.10
2017,03,29,13,50,10.10
2017,03,29,13,51,10.10
2017,03,29,13,52,10.10
2017,03,29,13,53,10.20
2017,03,29,13,54,10.20
2017,03,29,13,55,10.20
2017,03,29,13,56,10.20
2017,03,29,13,57,10.20
2017,03,29,13,58,10.30
2017,03,29,13,59,10.30
2017,03,29,14,00,10.30
2017,03,29,14,01,10.30
2017,03,29,14,02,10.30
2017,03,29,14,03,10.30
2017,03,29,14,04,10.30
2017,03,29,14,05,10.40
2017,03,29,14,06,10.50
2017,03,29,14,07,10.50
2017,03,29,14,08,10.60
2017,03,29,14,09,10.60
2017,03,29,14,10,10.60
2017,03,29,14,11,10.70
2017,03,29,14,12,10.80
2017,03,29,14,13,10.80
2017,03,29,14,14,10.90
2017,03,29,14,15,11.00
2017,03,29,14,16,11.00
2017,03,29,14,17,11.10
2017,03,29,14,18,11.20
2017,03,29,14,19,11.10
2017,03,29,14,20,11.10
2017,03,29,14,21,11.10
2017,03,29,14,22,11.10
2017,03,29,14,23,11.10
2017,03,29,14,24,11.10
2017,03,29,14,25,11.20
2017,03,29,14,26,11.20
2017,03,29,14,27,11.20
2017,03,29,14,28,11.20
2017,03,29,14,29,11.20
2017,03,29,14,30,11.20
2017,03,29,14,31,11.30
2017,03,29,14,32,11.30
2017,03,29,14,33,11.40
2017,03,29,14,34,11.40
2017,03,29,14,35,11.50
2017,03,29,14,36,11.70
2017,03,29,14,37,11.80
2017,03,29,14,38,11.80
2017,03,29,14,39,11.90
2017,03,29,14,40,11.90
2017,03,29,14,41,12.00
2017,03,29,14,42,12.00
2017,03,29,14,43,12.10
2017,03,29,14,44,12.10
2017,03,29,14,45,12.10
2017,03,29,14,46,12.10
2017,03,29,14,47,12.20
2017,03,29,14,48,12.20
2017,03,29,14,49,12.30
2017,03,29,14,50,12.30
2017,03,29,14,51,12.30
2017,03,29,14,52,12.30
2017,03,29,14,53,12.30
2017,03,29,14,54,12.30
2017,03,29,14,55,12.30
2017,03,29,14,56,12.30
2017,03,29,14,57,12.20
2017,03,29,14,58,12.10
2017,03,29,14,59,12.10
2017,03,29,15,00,12.20
2017,03,29,15,01,12.20
2017,03,29,15,02,12.20
2017,03,29,15,03,12.20
2017,03,29,15,04,12.20
2017,03,29,15,05,12.20
2017,03,29,15,06,12.10
2017,03,29,15,07,12.10
2017,03,29,15,08,12.10
2017,03,29,15,09,12.10
2017,03,29,15,10,12.00
2017,03,29,15,11,12.00
2017,03,29,15,12,12.00
2017,03,29,15,13,12.00
2017,03,29,15,14,12.00
2017,03,29,15,15,12.10
2017,03,29,15,16,12.00
2017,03,29,15,17,11.90
2017,03,29,15,18,11.80
2017,03,29,15,19,11.90
2017,03,29,15,20,11.90
2017,03,29,15,21,11.80
2017,03,29,15,22,11.90
2017,03,29,15,23,12.00
2017,03,29,15,24,12.00
2017,03,29,15,25,12.00
2017,03,29,15,26,12.10
2017,03,29,15,27,12.10
2017,03,29,15,28,12.00
2017,03,29,15,29,12.00
2017,03,29,15,30,12.00
2017,03,29,15,31,12.00
2017,03,29,15,32,12.00
2017,03,29,15,33,12.10
2017,03,29,15,34,12.00
2017,03,29,15,35,12.00
2017,03,29,15,36,12.00
2017,03,29,15,37,11.90
2017,03,29,15,38,11.90
2017,03,29,15,39,11.80
2017,03,29,15,40,11.80
2017,03,29,15,41,11.80
2017,03,29,15,42,11.80
2017,03,29,15,43,11.80
2017,03,29,15,44,11.80
2017,03,29,15,45,11.70
2017,03,29,15,46,11.70
2017,03,29,15,47,11.60
2017,03,29,15,48,11.60
2017,03,29,15,49,11.60
2017,03,29,15,50,11.60
2017,03,29,15,51,11.70
2017,03,29,15,52,11.70
2017,03,29,15,53,11.70
2017,03,29,15,54,11.70
2017,03,29,15,55,11.70
2017,03,29,15,56,11.70
2017,03,29,15,57,11.70
2017,03,29,15,58,11.70
2017,03,29,15,59,11.70
2017,03,29,16,00,11.60
2017,03,29,16,01,11.60
2017,03,29,16,02,11.60
2017,03,29,16,03,11.60
2017,03,29,16,04,11.60
2017,03,29,16,05,11.60
2017,03,29,16,06,11.60
2017,03,29,16,07,11.70
2017,03,29,16,08,11.80
2017,03,29,16,09,12.00
2017,03,29,16,10,12.10
2017,03,29,16,11,12.20
2017,03,29,16,12,12.20
2017,03,29,16,13,12.30
2017,03,29,16,14,12.30
2017,03,29,16,15,12.30
2017,03,29,16,16,12.30
2017,03,29,16,17,12.30
2017,03,29,16,18,12.40
2017,03,29,16,19,12.40
2017,03,29,16,20,12.40
2017,03,29,16,21,12.40
2017,03,29,16,22,12.30
2017,03,29,16,23,12.10
2017,03,29,16,24,12.10
2017,03,29,16,25,12.10
2017,03,29,16,26,12.10
2017,03,29,16,27,12.20
2017,03,29,16,28,12.20
2017,03,29,16,29,12.20
2017,03,29,16,30,12.10
2017,03,29,16,31,12.10
2017,03,29,16,32,12.10
2017,03,29,16,33,12.10
2017,03,29,16,34,12.10
2017,03,29,16,35,12.00
2017,03,29,16,36,11.90
2017,03,29,16,37,11.80
2017,03,29,16,38,11.80
2017,03,29,16,39,11.70
2017,03,29,16,40,11.70
2017,03,29,16,41,11.60
2017,03,29,16,42,11.50
2017,03,29,16,43,11.40
2017,03,29,16,44,11.20
2017,03,29,16,45,11.10
2017,03,29,16,46,11.00
2017,03,29,16,47,10.90
2017,03,29,16,48,10.90
2017,03,29,16,49,10.80
2017,03,29,16,50,10.80
2017,03,29,16,51,10.80
2017,03,29,16,52,10.80
2017,03,29,16,53,10.80
2017,03,29,16,54,10.90
2017,03,29,16,55,10.90
2017,03,29,16,56,10.90
2017,03,29,16,57,11.00
2017,03,29,16,58,11.00
2017,03,29,16,59,11.00
2017,03,29,17,00,11.00
2017,03,29,17,01,11.00
2017,03,29,17,02,11.10
2017,03,29,17,03,11.10
2017,03,29,17,04,11.20
2017,03,29,17,05,11.20
2017,03,29,17,06,11.20
2017,03,29,17,07,11.20
2017,03,29,17,08,11.20
2017,03,29,17,09,11.20
2017,03,29,17,10,11.20
2017,03,29,17,11,11.20
2017,03,29,17,12,11.20
2017,03,29,17,13,11.20
2017,03,29,17,14,11.20
2017,03,29,17,15,11.20
2017,03,29,17,16,11.20
2017,03,29,17,17,11.20
2017,03,29,17,18,11.30
2017,03,29,17,19,11.30
2017,03,29,17,20,11.30
2017,03,29,17,21,11.30
2017,03,29,17,22,11.30
2017,03,29,17,23,11.30
2017,03,29,17,24,11.30
2017,03,29,17,25,11.30
2017,03,29,17,26,11.30
2017,03,29,17,27,11.30
2017,03,29,17,28,11.30
2017,03,29,17,29,11.30
2017,03,29,17,30,11.30
2017,03,29,17,31,11.30
2017,03,29,17,32,11.30
2017,03,29,17,33,11.30
2017,03,29,17,34,11.30
2017,03,29,17,35,11.30
2017,03,29,17,36,11.40
2017,03,29,17,37,11.40
2017,03,29,17,38,11.40
2017,03,29,17,39,11.30
2017,03,29,17,40,11.30
2017,03,29,17,41,11.30
2017,03,29,17,42,11.30
2017,03,29,17,43,11.30
2017,03,29,17,44,11.30
2017,03,29,17,45,11.30
2017,03,29,17,46,11.20
2017,03,29,17,47,11.20
2017,03,29,17,48,11.20
2017,03,29,17,49,11.20
2017,03,29,17,50,11.20
2017,03,29,17,51,11.20
2017,03,29,17,52,11.20
2017,03,29,17,53,11.20
2017,03,29,17,54,11.20
2017,03,29,17,55,11.10
2017,03,29,17,56,11.10
2017,03,29,17,57,11.00
2017,03,29,17,58,11.00
2017,03,29,17,59,10.90
2017,03,29,18,00,10.90
2017,03,29,18,01,10.80
2017,03,29,18,02,10.80
2017,03,29,18,03,10.80
2017,03,29,18,04,10.80
2017,03,29,18,05,10.80
2017,03,29,18,06,10.80
2017,03,29,18,07,10.80
2017,03,29,18,08,10.80
2017,03,29,18,09,10.70
2017,03,29,18,10,10.70
2017,03,29,18,11,10.70
2017,03,29,18,12,10.70
2017,03,29,18,13,10.60
2017,03,29,18,14,10.60
2017,03,29,18,15,10.60
2017,03,29,18,16,10.60
2017,03,29,18,17,10.60
2017,03,29,18,18,10.60
2017,03,29,18,19,10.60
2017,03,29,18,20,10.60
2017,03,29,18,21,10.60
2017,03,29,18,22,10.60
2017,03,29,18,23,10.60
2017,03,29,18,24,10.50
2017,03,29,18,25,10.50
2017,03,29,18,26,10.50
2017,03,29,18,27,10.50
2017,03,29,18,28,10.40
2017,03,29,18,29,10.40
2017,03,29,18,30,10.40
2017,03,29,18,31,10.40
2017,03,29,18,32,10.40
2017,03,29,18,33,10.40
2017,03,29,18,34,10.40
2017,03,29,18,35,10.30
2017,03,29,18,36,10.30
2017,03,29,18,37,10.30
2017,03,29,18,38,10.30
2017,03,29,18,39,10.30
2017,03,29,18,40,10.30
2017,03,29,18,41,10.30
2017,03,29,18,42,10.30
2017,03,29,18,43,10.30
2017,03,29,18,44,10.30
2017,03,29,18,45,10.30
2017,03,29,18,46,10.30
2017,03,29,18,47,10.30
2017,03,29,18,48,10.30
2017,03,29,18,49,10.30
